Time,TemperatureF,DewpointF,PressureIn,WindDirection,WindDirectionDegrees,WindSpeedMPH,WindSpeedGustMPH,Humidity,HourlyPrecipIn,Conditions,Clouds,dailyrainin,SoftwareType,DateUTC
2013-04-19 00:01:00,57.2,56.4,28.57,SE,133,2.5,3.7,97,0.07,,,0.60,proprietary,2013-04-19 04:01:00,
2013-04-19 00:02:00,57.1,56.3,28.57,SE,128,2.2,3.3,97,0.07,,,0.60,proprietary,2013-04-19 04:02:00,
2013-04-19 00:03:00,57.1,56.3,28.57,SE,137,2.6,3.4,97,0.08,,,0.61,proprietary,2013-04-19 04:03:00,
2013-04-19 00:05:00,57.1,56.4,28.57,SE,136,3.6,4.3,97,0.08,,,0.00,proprietary,2013-04-19 04:05:00,
2013-04-19 00:07:00,57.1,56.3,28.57,SE,134,2.0,2.9,97,0.07,,,0.00,proprietary,2013-04-19 04:07:00,
2013-04-19 00:12:00,57.1,56.4,28.57,ESE,123,3.9,4.7,97,0.07,,,0.00,proprietary,2013-04-19 04:12:00,
2013-04-19 00:17:00,57.1,56.4,28.57,SSW,192,5.2,5.6,97,0.06,,,0.00,proprietary,2013-04-19 04:17:00,
2013-04-19 00:22:00,57.1,56.4,28.59,South,175,5.6,6.9,97,0.06,,,0.01,proprietary,2013-04-19 04:22:00,
2013-04-19 00:27:00,57.1,56.5,28.58,South,174,5.6,7.0,97,0.08,,,0.03,proprietary,2013-04-19 04:27:00,
2013-04-19 00:32:00,57.2,56.4,28.58,South,174,5.2,6.6,97,0.08,,,0.04,proprietary,2013-04-19 04:32:00,
2013-04-19 00:37:00,57.3,56.5,28.58,SSW,192,6.0,7.0,96,0.09,,,0.06,proprietary,2013-04-19 04:37:00,
2013-04-19 00:42:00,57.4,56.5,28.58,SSE,163,6.4,8.0,96,0.11,,,0.08,proprietary,2013-04-19 04:42:00,
2013-04-19 00:47:00,57.4,56.4,28.57,SSE,156,7.0,9.0,96,0.11,,,0.09,proprietary,2013-04-19 04:47:00,
2013-04-19 00:52:00,57.4,56.4,28.56,SSE,155,5.1,6.7,96,0.11,,,0.10,proprietary,2013-04-19 04:52:00,
2013-04-19 00:57:00,57.4,56.4,28.57,SSE,165,6.7,8.1,96,0.12,,,0.11,proprietary,2013-04-19 04:57:00,
2013-04-19 01:02:00,57.4,56.5,28.56,SSE,159,6.1,7.2,96,0.12,,,0.11,proprietary,2013-04-19 05:02:00,
2013-04-19 01:07:00,57.3,56.4,28.56,SSE,148,6.0,7.2,96,0.12,,,0.12,proprietary,2013-04-19 05:07:00,
2013-04-19 01:12:00,57.3,56.4,28.55,SSE,152,5.6,6.3,96,0.13,,,0.13,proprietary,2013-04-19 05:12:00,
2013-04-19 01:17:00,57.2,56.4,28.55,SE,146,6.2,7.2,97,0.13,,,0.13,proprietary,2013-04-19 05:17:00,
2013-04-19 01:22:00,57.1,56.3,28.55,SSE,152,6.5,7.3,97,0.13,,,0.14,proprietary,2013-04-19 05:22:00,
2013-04-19 01:27:00,57.1,56.3,28.54,SSE,151,5.3,7.8,97,0.12,,,0.15,proprietary,2013-04-19 05:27:00,
2013-04-19 01:33:00,57.1,56.3,28.53,SE,141,5.2,7.4,97,0.10,,,0.15,proprietary,2013-04-19 05:33:00,
2013-04-19 01:38:00,57.1,56.3,28.53,SSE,154,6.8,9.1,96,0.10,,,0.16,proprietary,2013-04-19 05:38:00,
2013-04-19 01:44:00,57.2,56.3,28.52,SSE,152,6.1,7.8,96,0.08,,,0.16,proprietary,2013-04-19 05:44:00,
2013-04-19 01:49:00,57.2,56.3,28.52,SE,138,5.2,6.3,96,0.07,,,0.17,proprietary,2013-04-19 05:49:00,
2013-04-19 01:55:00,57.1,56.2,28.51,SSE,148,5.4,6.3,96,0.07,,,0.17,proprietary,2013-04-19 05:55:00,
2013-04-19 02:00:00,57.1,56.2,28.50,SE,127,5.2,6.5,96,0.07,,,0.18,proprietary,2013-04-19 06:00:00,
2013-04-19 02:05:00,57.1,56.2,28.50,SE,143,6.3,7.3,96,0.07,,,0.19,proprietary,2013-04-19 06:05:00,
2013-04-19 02:11:00,57.0,56.1,28.50,SE,146,6.7,8.2,96,0.06,,,0.19,proprietary,2013-04-19 06:11:00,
2013-04-19 02:16:00,57.0,56.0,28.49,SE,143,5.8,6.7,96,0.07,,,0.20,proprietary,2013-04-19 06:16:00,
2013-04-19 02:21:00,57.0,56.0,28.48,SE,135,5.2,6.4,96,0.06,,,0.20,proprietary,2013-04-19 06:21:00,
2013-04-19 02:26:00,56.9,56.0,28.48,SE,139,6.0,7.4,96,0.06,,,0.21,proprietary,2013-04-19 06:26:00,
2013-04-19 02:31:00,56.8,56.0,28.48,SE,143,6.8,8.3,96,0.06,,,0.21,proprietary,2013-04-19 06:31:00,
2013-04-19 02:36:00,56.7,55.9,28.48,SE,136,5.8,7.4,97,0.07,,,0.22,proprietary,2013-04-19 06:36:00,
2013-04-19 02:41:00,56.7,55.9,28.48,SE,140,6.4,7.9,97,0.07,,,0.23,proprietary,2013-04-19 06:41:00,
2013-04-19 02:46:00,56.7,56.0,28.48,SE,143,7.4,9.1,97,0.06,,,0.23,proprietary,2013-04-19 06:46:00,
2013-04-19 02:51:00,56.7,56.0,28.47,SE,145,8.1,9.9,97,0.07,,,0.24,proprietary,2013-04-19 06:51:00,
2013-04-19 02:56:00,56.7,56.0,28.47,SE,139,6.4,8.3,97,0.07,,,0.24,proprietary,2013-04-19 06:56:00,
2013-04-19 03:01:00,56.7,56.0,28.46,SE,139,7.1,9.4,97,0.07,,,0.25,proprietary,2013-04-19 07:01:00,
2013-04-19 03:06:00,56.7,56.0,28.45,SE,139,6.7,8.3,97,0.06,,,0.25,proprietary,2013-04-19 07:06:00,
2013-04-19 03:12:00,56.7,55.9,28.45,SE,130,6.7,8.9,96,0.07,,,0.26,proprietary,2013-04-19 07:12:00,
2013-04-19 03:17:00,56.7,55.8,28.44,SE,135,4.4,5.8,96,0.06,,,0.26,proprietary,2013-04-19 07:17:00,
2013-04-19 03:22:00,56.7,55.8,28.43,SE,139,6.0,7.1,96,0.06,,,0.27,proprietary,2013-04-19 07:22:00,
2013-04-19 03:27:00,56.7,55.8,28.43,SE,139,7.0,9.5,96,0.06,,,0.27,proprietary,2013-04-19 07:27:00,
2013-04-19 03:32:00,56.6,55.7,28.43,SE,144,4.8,5.8,96,0.05,,,0.27,proprietary,2013-04-19 07:32:00,
2013-04-19 03:37:00,56.6,55.7,28.43,SSE,152,5.9,7.1,96,0.05,,,0.27,proprietary,2013-04-19 07:37:00,
2013-04-19 03:42:00,56.6,55.7,28.42,SE,141,5.7,7.2,96,0.05,,,0.28,proprietary,2013-04-19 07:42:00,
2013-04-19 03:47:00,56.6,55.6,28.41,SE,133,4.7,5.8,96,0.05,,,0.28,proprietary,2013-04-19 07:47:00,
2013-04-19 03:52:00,56.6,55.6,28.42,SSE,159,5.9,7.2,96,0.04,,,0.28,proprietary,2013-04-19 07:52:00,
2013-04-19 03:57:00,56.5,55.6,28.41,SSE,147,5.3,6.1,96,0.05,,,0.29,proprietary,2013-04-19 07:57:00,
2013-04-19 04:02:00,56.5,55.7,28.41,SE,145,5.2,6.6,96,0.04,,,0.29,proprietary,2013-04-19 08:02:00,
2013-04-19 04:07:00,56.5,55.7,28.40,SSE,148,5.7,6.2,97,0.04,,,0.29,proprietary,2013-04-19 08:07:00,
2013-04-19 04:12:00,56.5,55.7,28.40,SE,145,5.3,7.2,97,0.04,,,0.30,proprietary,2013-04-19 08:12:00,
2013-04-19 04:17:00,56.5,55.7,28.39,SE,146,6.4,7.6,97,0.04,,,0.30,proprietary,2013-04-19 08:17:00,
2013-04-19 04:22:00,56.5,55.8,28.39,SE,145,6.3,7.9,97,0.04,,,0.31,proprietary,2013-04-19 08:22:00,
2013-04-19 04:27:00,56.5,55.8,28.39,SE,139,6.2,7.1,97,0.04,,,0.31,proprietary,2013-04-19 08:27:00,
2013-04-19 04:32:00,56.6,56.0,28.39,SE,146,6.8,8.2,97,0.05,,,0.32,proprietary,2013-04-19 08:32:00,
2013-04-19 04:37:00,56.7,56.0,28.38,SSE,150,5.2,7.4,97,0.05,,,0.32,proprietary,2013-04-19 08:37:00,
2013-04-19 04:42:00,57.0,56.1,28.38,SSE,162,9.1,10.7,96,0.05,,,0.33,proprietary,2013-04-19 08:42:00,
2013-04-19 04:47:00,57.1,56.2,28.38,SSE,160,7.0,9.0,96,0.05,,,0.33,proprietary,2013-04-19 08:47:00,
2013-04-19 04:52:00,57.2,56.2,28.37,SE,143,7.0,9.2,96,0.08,,,0.36,proprietary,2013-04-19 08:52:00,
2013-04-19 04:57:00,57.2,56.3,28.36,SSE,148,8.1,8.9,96,0.09,,,0.38,proprietary,2013-04-19 08:57:00,
2013-04-19 05:02:00,57.2,56.2,28.36,SSE,167,6.5,8.5,96,0.10,,,0.39,proprietary,2013-04-19 09:02:00,
2013-04-19 05:07:00,57.3,56.4,28.36,South,180,8.5,9.6,96,0.12,,,0.41,proprietary,2013-04-19 09:07:00,
2013-04-19 05:12:00,57.5,56.5,28.36,SSW,200,8.9,10.9,96,0.13,,,0.43,proprietary,2013-04-19 09:12:00,
2013-04-19 05:17:00,57.6,56.6,28.36,South,179,8.5,11.3,96,0.13,,,0.43,proprietary,2013-04-19 09:17:00,
2013-04-19 05:22:00,57.6,56.6,28.36,SSW,195,9.5,12.3,96,0.13,,,0.44,proprietary,2013-04-19 09:22:00,
2013-04-19 05:27:00,56.6,54.6,28.38,West,260,8.2,17.5,92,0.14,,,0.45,proprietary,2013-04-19 09:27:00,
2013-04-19 05:32:00,55.2,53.3,28.37,WSW,258,7.2,9.8,93,0.14,,,0.46,proprietary,2013-04-19 09:32:00,
2013-04-19 05:37:00,51.6,48.8,28.39,WSW,241,8.7,14.0,89,0.14,,,0.46,proprietary,2013-04-19 09:37:00,
2013-04-19 05:42:00,50.5,48.3,28.39,West,267,7.6,10.6,92,0.13,,,0.46,proprietary,2013-04-19 09:42:00,
2013-04-19 05:47:00,50.1,48.2,28.39,WSW,246,7.3,14.0,93,0.14,,,0.47,proprietary,2013-04-19 09:47:00,
2013-04-19 05:52:00,49.7,48.0,28.39,WSW,247,7.7,9.4,93,0.11,,,0.47,proprietary,2013-04-19 09:52:00,
2013-04-19 05:57:00,49.5,47.9,28.39,WSW,254,7.7,12.6,94,0.10,,,0.48,proprietary,2013-04-19 09:57:00,
2013-04-19 06:02:00,49.4,48.0,28.39,West,269,6.4,10.3,94,0.09,,,0.48,proprietary,2013-04-19 10:02:00,
2013-04-19 06:07:00,48.4,46.4,28.39,WNW,284,4.0,7.3,92,0.08,,,0.49,proprietary,2013-04-19 10:07:00,
2013-04-19 06:12:00,47.3,45.4,28.40,West,275,4.4,5.5,92,0.06,,,0.49,proprietary,2013-04-19 10:12:00,
2013-04-19 06:17:00,46.8,45.0,28.40,West,261,7.0,12.1,93,0.07,,,0.50,proprietary,2013-04-19 10:17:00,
2013-04-19 06:22:00,46.5,44.5,28.41,West,270,6.0,8.2,92,0.06,,,0.50,proprietary,2013-04-19 10:22:00,
2013-04-19 06:27:00,46.0,44.0,28.41,West,259,6.0,7.5,92,0.06,,,0.51,proprietary,2013-04-19 10:27:00,
2013-04-19 06:32:00,45.7,43.9,28.40,West,271,5.5,7.8,93,0.05,,,0.51,proprietary,2013-04-19 10:32:00,
2013-04-19 06:37:00,45.5,43.9,28.41,West,269,4.0,6.6,94,0.05,,,0.51,proprietary,2013-04-19 10:37:00,
2013-04-19 06:42:00,45.4,44.0,28.41,WNW,286,3.3,4.8,94,0.06,,,0.52,proprietary,2013-04-19 10:42:00,
2013-04-19 06:47:00,45.3,43.6,28.41,WSW,250,7.7,12.2,93,0.05,,,0.52,proprietary,2013-04-19 10:47:00,
2013-04-19 06:52:00,45.2,43.4,28.41,WSW,242,5.2,9.3,93,0.05,,,0.52,proprietary,2013-04-19 10:52:00,
2013-04-19 06:57:00,44.8,43.1,28.42,SW,230,6.2,10.9,93,0.05,,,0.53,proprietary,2013-04-19 10:57:00,
2013-04-19 07:02:00,44.3,42.8,28.42,SW,220,7.1,9.8,94,0.05,,,0.53,proprietary,2013-04-19 11:02:00,
2013-04-19 07:07:00,43.9,42.4,28.42,WSW,246,4.2,6.1,94,0.04,,,0.53,proprietary,2013-04-19 11:07:00,
2013-04-19 07:12:00,43.7,42.3,28.42,SW,232,4.3,6.7,94,0.05,,,0.54,proprietary,2013-04-19 11:12:00,
2013-04-19 07:17:00,43.6,42.4,28.42,West,259,2.0,3.6,95,0.04,,,0.54,proprietary,2013-04-19 11:17:00,
2013-04-19 07:22:00,43.6,42.3,28.42,WSW,257,7.9,11.7,95,0.05,,,0.55,proprietary,2013-04-19 11:22:00,
2013-04-19 07:27:00,43.0,41.5,28.43,WNW,291,4.3,5.1,94,0.04,,,0.55,proprietary,2013-04-19 11:27:00,
2013-04-19 07:32:00,42.2,40.3,28.43,WNW,285,9.5,12.9,92,0.04,,,0.55,proprietary,2013-04-19 11:32:00,
2013-04-19 07:37:00,41.6,39.5,28.43,WNW,283,7.1,9.0,92,0.05,,,0.56,proprietary,2013-04-19 11:37:00,
2013-04-19 07:42:00,41.4,39.3,28.43,West,280,6.2,9.5,92,0.04,,,0.56,proprietary,2013-04-19 11:42:00,
2013-04-19 07:47:00,41.3,39.0,28.44,West,262,6.2,10.9,91,0.04,,,0.56,proprietary,2013-04-19 11:47:00,
2013-04-19 07:52:00,41.3,39.1,28.44,West,259,5.3,7.6,91,0.04,,,0.56,proprietary,2013-04-19 11:52:00,
2013-04-19 07:57:00,41.1,38.8,28.45,WNW,284,5.9,9.7,91,0.04,,,0.57,proprietary,2013-04-19 11:57:00,
2013-04-19 08:02:00,40.9,38.3,28.45,West,263,8.2,13.6,90,0.04,,,0.57,proprietary,2013-04-19 12:02:00,
2013-04-19 08:07:00,40.6,38.1,28.45,WSW,250,8.1,11.3,90,0.04,,,0.57,proprietary,2013-04-19 12:07:00,
2013-04-19 08:12:00,40.2,37.5,28.45,West,275,6.4,8.5,90,0.03,,,0.57,proprietary,2013-04-19 12:12:00,
2013-04-19 08:17:00,39.8,37.2,28.45,West,265,6.4,10.5,90,0.03,,,0.57,proprietary,2013-04-19 12:17:00,
2013-04-19 08:22:00,39.4,36.9,28.45,West,260,8.0,11.3,90,0.02,,,0.57,proprietary,2013-04-19 12:22:00,
2013-04-19 08:27:00,39.1,36.5,28.46,WSW,257,6.3,8.6,90,0.02,,,0.57,proprietary,2013-04-19 12:27:00,
2013-04-19 08:32:00,39.0,36.5,28.46,West,262,8.0,10.8,90,0.02,,,0.57,proprietary,2013-04-19 12:32:00,
2013-04-19 08:37:00,38.8,36.1,28.47,West,272,8.9,14.1,90,0.01,,,0.57,proprietary,2013-04-19 12:37:00,
2013-04-19 08:42:00,38.6,35.8,28.47,WSW,250,6.2,10.9,89,0.01,,,0.57,proprietary,2013-04-19 12:42:00,
2013-04-19 08:47:00,38.6,35.8,28.47,West,259,5.8,8.9,89,0.01,,,0.57,proprietary,2013-04-19 12:47:00,
2013-04-19 08:53:00,38.5,35.7,28.48,WSW,248,9.6,16.8,89,0.01,,,0.57,proprietary,2013-04-19 12:53:00,
2013-04-19 08:58:00,38.5,35.4,28.48,WSW,248,9.4,15.7,88,0.00,,,0.57,proprietary,2013-04-19 12:58:00,
2013-04-19 09:03:00,38.3,34.9,28.48,West,260,7.9,14.9,87,0.00,,,0.57,proprietary,2013-04-19 13:03:00,
2013-04-19 09:08:00,38.3,35.1,28.48,WSW,240,5.3,7.7,88,0.00,,,0.57,proprietary,2013-04-19 13:08:00,
2013-04-19 09:13:00,38.3,35.4,28.48,WSW,256,8.2,16.0,89,0.00,,,0.57,proprietary,2013-04-19 13:13:00,
2013-04-19 09:18:00,38.4,35.4,28.48,WSW,245,6.6,11.1,88,0.00,,,0.57,proprietary,2013-04-19 13:18:00,
2013-04-19 09:23:00,38.4,35.4,28.48,WSW,237,8.2,12.8,89,0.00,,,0.57,proprietary,2013-04-19 13:23:00,
2013-04-19 09:28:00,38.5,35.3,28.47,WSW,247,9.2,13.8,88,0.00,,,0.57,proprietary,2013-04-19 13:28:00,
2013-04-19 09:33:00,38.5,35.6,28.49,SW,219,3.7,6.1,89,0.00,,,0.57,proprietary,2013-04-19 13:33:00,
2013-04-19 09:38:00,38.5,35.6,28.49,SW,232,9.2,12.2,88,0.00,,,0.57,proprietary,2013-04-19 13:38:00,
2013-04-19 09:43:00,38.5,34.9,28.48,SW,220,8.2,12.4,86,0.00,,,0.57,proprietary,2013-04-19 13:43:00,
2013-04-19 09:48:00,38.4,34.8,28.49,WSW,257,11.1,14.2,86,0.00,,,0.57,proprietary,2013-04-19 13:48:00,
2013-04-19 09:53:00,38.3,34.4,28.49,WSW,253,9.6,11.7,85,0.00,,,0.57,proprietary,2013-04-19 13:53:00,
2013-04-19 09:58:00,38.1,33.8,28.49,WSW,243,10.3,14.8,84,0.00,,,0.57,proprietary,2013-04-19 13:58:00,
2013-04-19 10:03:00,38.3,33.9,28.49,WSW,257,10.0,14.7,83,0.00,,,0.57,proprietary,2013-04-19 14:03:00,
2013-04-19 10:08:00,38.5,32.6,28.49,WSW,243,7.0,9.0,79,0.00,,,0.57,proprietary,2013-04-19 14:08:00,
2013-04-19 10:13:00,38.8,32.4,28.49,WSW,244,8.1,16.3,77,0.00,,,0.57,proprietary,2013-04-19 14:13:00,
2013-04-19 10:18:00,38.6,31.2,28.49,WSW,250,7.5,12.0,74,0.00,,,0.57,proprietary,2013-04-19 14:18:00,
2013-04-19 10:23:00,38.5,31.2,28.50,SW,227,7.1,9.0,75,0.00,,,0.57,proprietary,2013-04-19 14:23:00,
2013-04-19 10:28:00,38.5,30.8,28.50,WSW,254,7.9,11.9,73,0.00,,,0.57,proprietary,2013-04-19 14:28:00,
2013-04-19 10:33:00,38.5,30.3,28.50,WSW,240,10.2,17.9,72,0.00,,,0.57,proprietary,2013-04-19 14:33:00,
2013-04-19 10:38:00,38.4,30.3,28.50,WSW,252,7.2,10.6,72,0.00,,,0.57,proprietary,2013-04-19 14:38:00,
2013-04-19 10:43:00,38.5,31.2,28.50,SW,224,6.1,10.3,74,0.00,,,0.57,proprietary,2013-04-19 14:43:00,
2013-04-19 10:48:00,38.6,31.0,28.51,WSW,246,7.3,16.4,73,0.00,,,0.57,proprietary,2013-04-19 14:48:00,
2013-04-19 10:53:00,38.6,30.9,28.51,SW,226,7.5,14.7,73,0.00,,,0.57,proprietary,2013-04-19 14:53:00,
2013-04-19 10:58:00,38.7,30.6,28.51,WSW,250,7.2,9.6,72,0.00,,,0.57,proprietary,2013-04-19 14:58:00,
2013-04-19 11:03:00,38.7,30.6,28.51,SW,236,7.4,12.0,72,0.00,,,0.57,proprietary,2013-04-19 15:03:00,
2013-04-19 11:08:00,38.7,29.8,28.52,SW,229,9.4,12.3,69,0.00,,,0.57,proprietary,2013-04-19 15:08:00,
2013-04-19 11:13:00,38.7,28.9,28.52,WSW,240,7.8,10.4,67,0.00,,,0.57,proprietary,2013-04-19 15:13:00,
2013-04-19 11:18:00,38.6,28.5,28.52,SW,226,11.1,15.6,66,0.00,,,0.57,proprietary,2013-04-19 15:18:00,
2013-04-19 11:23:00,38.6,28.1,28.53,WSW,253,10.5,13.5,65,0.00,,,0.57,proprietary,2013-04-19 15:23:00,
2013-04-19 11:28:00,38.5,28.3,28.53,SW,231,7.7,9.8,66,0.00,,,0.57,proprietary,2013-04-19 15:28:00,
2013-04-19 11:33:00,38.5,28.7,28.53,SW,234,11.6,17.8,67,0.00,,,0.57,proprietary,2013-04-19 15:33:00,
2013-04-19 11:38:00,38.5,28.9,28.54,WSW,246,9.1,15.8,68,0.00,,,0.57,proprietary,2013-04-19 15:38:00,
2013-04-19 11:43:00,38.4,29.6,28.54,SW,216,6.2,7.8,70,0.00,,,0.57,proprietary,2013-04-19 15:43:00,
2013-04-19 11:48:00,38.4,29.6,28.54,SW,220,8.2,15.5,70,0.00,,,0.57,proprietary,2013-04-19 15:48:00,
2013-04-19 11:53:00,38.3,29.9,28.54,SW,221,12.1,16.4,71,0.00,,,0.57,proprietary,2013-04-19 15:53:00,
2013-04-19 11:58:00,38.2,28.6,28.54,WSW,246,14.5,23.2,68,0.00,,,0.57,proprietary,2013-04-19 15:58:00,
2013-04-19 12:03:00,38.4,28.5,28.54,SW,231,10.2,16.3,67,0.00,,,0.57,proprietary,2013-04-19 16:03:00,
2013-04-19 12:08:00,38.7,28.7,28.55,SW,234,7.9,13.5,67,0.00,,,0.57,proprietary,2013-04-19 16:08:00,
2013-04-19 12:13:00,38.5,28.4,28.54,WSW,237,12.3,19.2,66,0.00,,,0.57,proprietary,2013-04-19 16:13:00,
2013-04-19 12:18:00,38.4,28.5,28.54,SW,225,7.7,10.9,67,0.00,,,0.57,proprietary,2013-04-19 16:18:00,
2013-04-19 12:23:00,38.4,28.7,28.54,SW,227,9.9,12.9,67,0.00,,,0.57,proprietary,2013-04-19 16:23:00,
2013-04-19 12:28:00,38.4,28.8,28.54,SW,221,8.2,11.1,68,0.00,,,0.57,proprietary,2013-04-19 16:28:00,
2013-04-19 12:33:00,38.4,28.9,28.54,SW,222,10.0,17.7,68,0.00,,,0.57,proprietary,2013-04-19 16:33:00,
2013-04-19 12:38:00,38.5,29.0,28.54,West,261,11.2,15.6,68,0.00,,,0.57,proprietary,2013-04-19 16:38:00,
2013-04-19 12:43:00,38.9,29.3,28.54,WSW,245,10.9,16.1,68,0.00,,,0.57,proprietary,2013-04-19 16:43:00,
2013-04-19 12:48:00,39.3,29.5,28.54,WSW,240,13.1,17.1,67,0.00,,,0.57,proprietary,2013-04-19 16:48:00,
2013-04-19 12:53:00,39.6,29.1,28.54,SW,224,13.0,21.1,65,0.00,,,0.57,proprietary,2013-04-19 16:53:00,
2013-04-19 12:58:00,39.1,28.8,28.54,SW,230,8.1,10.9,66,0.00,,,0.57,proprietary,2013-04-19 16:58:00,
2013-04-19 13:03:00,39.3,29.3,28.54,SW,218,12.6,17.0,67,0.00,,,0.57,proprietary,2013-04-19 17:03:00,
2013-04-19 13:08:00,39.4,29.3,28.54,WSW,257,11.8,21.5,66,0.00,,,0.57,proprietary,2013-04-19 17:08:00,
2013-04-19 13:13:00,39.1,28.2,28.54,SW,231,12.4,20.2,64,0.00,,,0.57,proprietary,2013-04-19 17:13:00,
2013-04-19 13:18:00,39.2,27.6,28.55,WSW,240,12.0,22.0,62,0.00,,,0.57,proprietary,2013-04-19 17:18:00,
2013-04-19 13:23:00,40.1,28.9,28.55,WSW,246,13.2,22.6,63,0.00,,,0.57,proprietary,2013-04-19 17:23:00,
2013-04-19 13:28:00,39.9,28.0,28.55,SW,219,11.0,24.0,61,0.00,,,0.57,proprietary,2013-04-19 17:28:00,
2013-04-19 13:33:00,40.1,27.9,28.55,SW,229,14.8,20.2,61,0.00,,,0.57,proprietary,2013-04-19 17:33:00,
2013-04-19 13:38:00,40.3,27.7,28.55,SW,233,9.3,20.1,60,0.00,,,0.57,proprietary,2013-04-19 17:38:00,
2013-04-19 13:43:00,40.7,28.3,28.55,SW,214,9.3,16.4,61,0.00,,,0.57,proprietary,2013-04-19 17:43:00,
2013-04-19 13:48:00,40.1,27.0,28.55,WSW,252,10.6,17.1,58,0.00,,,0.57,proprietary,2013-04-19 17:48:00,
2013-04-19 13:54:00,39.8,27.3,28.55,SW,220,9.9,14.2,60,0.00,,,0.57,proprietary,2013-04-19 17:54:00,
2013-04-19 13:59:00,39.9,27.4,28.55,SW,234,11.6,17.7,60,0.00,,,0.57,proprietary,2013-04-19 17:59:00,
2013-04-19 14:04:00,39.9,27.2,28.55,SW,227,9.2,17.2,60,0.00,,,0.57,proprietary,2013-04-19 18:04:00,
2013-04-19 14:09:00,39.9,27.2,28.55,West,264,7.1,13.4,60,0.00,,,0.57,proprietary,2013-04-19 18:09:00,
2013-04-19 14:14:00,39.9,27.8,28.55,WSW,249,10.9,15.7,61,0.00,,,0.57,proprietary,2013-04-19 18:14:00,
2013-04-19 14:19:00,40.1,27.5,28.55,SW,231,9.7,12.9,60,0.00,,,0.57,proprietary,2013-04-19 18:19:00,
2013-04-19 14:24:00,40.3,28.0,28.56,WSW,246,11.1,17.9,61,0.00,,,0.57,proprietary,2013-04-19 18:24:00,
2013-04-19 14:29:00,40.1,27.4,28.55,West,263,12.2,16.7,60,0.00,,,0.57,proprietary,2013-04-19 18:29:00,
2013-04-19 14:34:00,39.9,27.9,28.56,WSW,248,11.4,16.1,62,0.00,,,0.57,proprietary,2013-04-19 18:34:00,
2013-04-19 14:39:00,39.9,27.9,28.56,SW,230,9.6,13.8,61,0.00,,,0.57,proprietary,2013-04-19 18:39:00,
2013-04-19 14:44:00,40.4,28.7,28.56,WSW,254,8.8,14.4,62,0.00,,,0.57,proprietary,2013-04-19 18:44:00,
2013-04-19 14:49:00,40.6,28.3,28.57,SW,223,12.5,18.4,61,0.00,,,0.57,proprietary,2013-04-19 18:49:00,
2013-04-19 14:54:00,40.0,27.4,28.57,WSW,247,9.6,13.2,60,0.00,,,0.57,proprietary,2013-04-19 18:54:00,
2013-04-19 14:59:00,39.9,28.3,28.57,SW,217,9.1,12.9,62,0.00,,,0.57,proprietary,2013-04-19 18:59:00,
2013-04-19 15:04:00,40.0,28.6,28.58,SW,227,11.7,18.3,63,0.00,,,0.57,proprietary,2013-04-19 19:04:00,
2013-04-19 15:09:00,39.6,28.4,28.58,SW,228,7.5,15.8,63,0.00,,,0.57,proprietary,2013-04-19 19:09:00,
2013-04-19 15:14:00,39.8,28.6,28.58,SW,224,9.4,11.7,64,0.00,,,0.57,proprietary,2013-04-19 19:14:00,
2013-04-19 15:19:00,39.4,28.5,28.59,SW,222,11.7,17.7,64,0.00,,,0.57,proprietary,2013-04-19 19:19:00,
2013-04-19 15:24:00,39.4,28.7,28.59,WSW,237,5.7,10.4,65,0.00,,,0.57,proprietary,2013-04-19 19:24:00,
2013-04-19 15:29:00,39.1,28.7,28.60,WSW,237,7.3,14.1,65,0.00,,,0.57,proprietary,2013-04-19 19:29:00,
2013-04-19 15:34:00,38.9,28.6,28.60,WSW,243,11.9,16.8,66,0.00,,,0.57,proprietary,2013-04-19 19:34:00,
2013-04-19 15:39:00,39.5,29.2,28.60,WSW,257,7.8,12.2,66,0.00,,,0.57,proprietary,2013-04-19 19:39:00,
2013-04-19 15:44:00,39.6,28.5,28.59,SSW,205,9.6,15.2,64,0.00,,,0.57,proprietary,2013-04-19 19:44:00,
2013-04-19 15:49:00,39.5,27.9,28.59,SW,225,9.8,13.5,62,0.00,,,0.57,proprietary,2013-04-19 19:49:00,
2013-04-19 15:54:00,39.7,27.2,28.59,WSW,240,13.3,22.1,60,0.00,,,0.57,proprietary,2013-04-19 19:54:00,
2013-04-19 15:59:00,40.0,26.3,28.59,West,261,11.7,16.4,57,0.00,,,0.57,proprietary,2013-04-19 19:59:00,
2013-04-19 16:04:00,40.3,26.7,28.59,SW,231,8.5,11.4,58,0.00,,,0.57,proprietary,2013-04-19 20:04:00,
2013-04-19 16:09:00,40.2,26.6,28.59,WSW,238,10.1,12.7,58,0.00,,,0.57,proprietary,2013-04-19 20:09:00,
2013-04-19 16:14:00,40.3,27.0,28.59,SSW,213,10.5,17.9,58,0.00,,,0.57,proprietary,2013-04-19 20:14:00,
2013-04-19 16:19:00,40.1,26.7,28.60,SW,230,11.8,17.1,58,0.00,,,0.57,proprietary,2013-04-19 20:19:00,
2013-04-19 16:24:00,40.1,27.0,28.60,SW,219,10.7,15.9,59,0.00,,,0.57,proprietary,2013-04-19 20:24:00,
2013-04-19 16:29:00,39.9,26.9,28.60,SW,225,5.8,9.4,59,0.00,,,0.57,proprietary,2013-04-19 20:29:00,
2013-04-19 16:34:00,40.1,27.0,28.60,WSW,246,11.2,17.8,59,0.00,,,0.57,proprietary,2013-04-19 20:34:00,
2013-04-19 16:39:00,39.8,26.7,28.61,WSW,241,11.1,15.3,58,0.00,,,0.57,proprietary,2013-04-19 20:39:00,
2013-04-19 16:44:00,39.8,27.2,28.61,SW,219,8.4,12.2,60,0.00,,,0.57,proprietary,2013-04-19 20:44:00,
2013-04-19 16:49:00,39.7,27.0,28.61,SW,218,14.2,20.2,60,0.00,,,0.57,proprietary,2013-04-19 20:49:00,
2013-04-19 16:54:00,39.5,27.1,28.61,WSW,256,9.2,16.3,60,0.00,,,0.57,proprietary,2013-04-19 20:54:00,
2013-04-19 16:59:00,39.4,27.7,28.62,WSW,241,7.8,15.5,62,0.00,,,0.57,proprietary,2013-04-19 20:59:00,
2013-04-19 17:04:00,39.2,28.2,28.62,SW,226,8.9,12.9,64,0.00,,,0.57,proprietary,2013-04-19 21:04:00,
2013-04-19 17:09:00,39.3,28.2,28.62,WSW,239,9.1,10.6,64,0.00,,,0.57,proprietary,2013-04-19 21:09:00,
2013-04-19 17:14:00,39.4,27.2,28.63,WSW,246,12.4,21.4,61,0.00,,,0.57,proprietary,2013-04-19 21:14:00,
2013-04-19 17:19:00,39.4,27.3,28.63,SW,231,8.1,12.7,61,0.00,,,0.57,proprietary,2013-04-19 21:19:00,
2013-04-19 17:24:00,39.4,26.8,28.63,SW,232,10.0,14.1,60,0.00,,,0.57,proprietary,2013-04-19 21:24:00,
2013-04-19 17:29:00,39.5,27.4,28.64,WSW,239,10.8,14.7,61,0.00,,,0.57,proprietary,2013-04-19 21:29:00,
2013-04-19 17:34:00,39.7,27.3,28.64,SW,234,9.5,11.9,60,0.00,,,0.57,proprietary,2013-04-19 21:34:00,
2013-04-19 17:39:00,39.7,27.1,28.64,SW,232,12.4,16.3,60,0.00,,,0.57,proprietary,2013-04-19 21:39:00,
2013-04-19 17:44:00,39.7,27.3,28.64,SW,229,12.4,16.8,60,0.00,,,0.57,proprietary,2013-04-19 21:44:00,
2013-04-19 17:49:00,39.7,26.9,28.65,WSW,237,9.6,15.2,59,0.00,,,0.57,proprietary,2013-04-19 21:49:00,
2013-04-19 17:54:00,39.6,27.1,28.65,SW,228,8.9,12.7,60,0.00,,,0.57,proprietary,2013-04-19 21:54:00,
2013-04-19 17:59:00,39.6,27.1,28.65,SW,224,8.2,16.0,60,0.00,,,0.57,proprietary,2013-04-19 21:59:00,
2013-04-19 18:04:00,39.3,26.8,28.65,WSW,237,12.1,20.6,60,0.00,,,0.57,proprietary,2013-04-19 22:04:00,
2013-04-19 18:09:00,39.1,27.2,28.65,SW,219,11.1,13.7,62,0.00,,,0.57,proprietary,2013-04-19 22:09:00,
2013-04-19 18:14:00,39.0,27.4,28.65,West,260,13.5,18.3,62,0.00,,,0.57,proprietary,2013-04-19 22:14:00,
2013-04-19 18:19:00,39.1,27.5,28.66,SW,232,12.4,18.0,62,0.00,,,0.57,proprietary,2013-04-19 22:19:00,
2013-04-19 18:24:00,39.1,27.8,28.66,SW,226,9.7,13.6,63,0.00,,,0.57,proprietary,2013-04-19 22:24:00,
2013-04-19 18:29:00,39.1,27.5,28.66,WSW,253,8.5,11.2,62,0.00,,,0.57,proprietary,2013-04-19 22:29:00,
2013-04-19 18:34:00,39.0,27.3,28.66,WSW,237,10.0,14.8,62,0.00,,,0.57,proprietary,2013-04-19 22:34:00,
2013-04-19 18:39:00,39.0,27.5,28.67,WSW,242,8.9,12.6,63,0.00,,,0.57,proprietary,2013-04-19 22:39:00,
2013-04-19 18:44:00,39.0,27.8,28.67,WSW,242,7.1,14.0,63,0.00,,,0.57,proprietary,2013-04-19 22:44:00,
2013-04-19 18:49:00,38.8,26.9,28.67,SW,234,11.3,20.2,61,0.00,,,0.57,proprietary,2013-04-19 22:49:00,
2013-04-19 18:54:00,38.6,26.7,28.68,WSW,239,7.4,12.1,62,0.00,,,0.57,proprietary,2013-04-19 22:54:00,
2013-04-19 18:59:00,38.3,27.3,28.68,WSW,242,7.6,10.8,64,0.00,,,0.57,proprietary,2013-04-19 22:59:00,
2013-04-19 19:04:00,38.2,28.0,28.68,SW,223,7.3,13.3,66,0.00,,,0.57,proprietary,2013-04-19 23:04:00,
2013-04-19 19:09:00,38.3,27.9,28.69,SW,221,7.5,9.6,65,0.00,,,0.57,proprietary,2013-04-19 23:09:00,
2013-04-19 19:14:00,38.4,28.1,28.69,WSW,240,7.9,10.5,66,0.00,,,0.57,proprietary,2013-04-19 23:14:00,
2013-04-19 19:19:00,38.4,28.2,28.69,SW,221,10.6,13.6,66,0.00,,,0.57,proprietary,2013-04-19 23:19:00,
2013-04-19 19:24:00,38.4,27.9,28.69,SW,220,6.9,9.3,65,0.00,,,0.57,proprietary,2013-04-19 23:24:00,
2013-04-19 19:29:00,38.3,27.5,28.69,WSW,243,8.2,13.1,64,0.00,,,0.57,proprietary,2013-04-19 23:29:00,
2013-04-19 19:34:00,38.4,27.4,28.69,SSW,210,9.2,14.4,64,0.00,,,0.57,proprietary,2013-04-19 23:34:00,
2013-04-19 19:39:00,38.4,27.5,28.70,WSW,241,7.2,11.5,64,0.00,,,0.57,proprietary,2013-04-19 23:39:00,
2013-04-19 19:44:00,38.4,26.9,28.70,SSW,209,10.0,15.0,62,0.00,,,0.57,proprietary,2013-04-19 23:44:00,
2013-04-19 19:49:00,38.4,26.7,28.70,SW,220,10.3,14.2,62,0.00,,,0.57,proprietary,2013-04-19 23:49:00,
2013-04-19 19:54:00,38.3,27.0,28.70,WSW,252,7.6,12.1,63,0.00,,,0.57,proprietary,2013-04-19 23:54:00,
2013-04-19 19:59:00,38.2,26.6,28.70,WSW,248,7.4,9.8,62,0.00,,,0.57,proprietary,2013-04-19 23:59:00,
2013-04-19 20:04:00,38.2,26.6,28.71,SW,227,11.5,14.9,62,0.00,,,0.57,proprietary,2013-04-20 00:04:00,
2013-04-19 20:09:00,38.0,26.9,28.71,SW,232,9.7,12.8,64,0.00,,,0.57,proprietary,2013-04-20 00:09:00,
2013-04-19 20:14:00,37.8,27.0,28.71,SW,218,8.3,11.0,64,0.00,,,0.57,proprietary,2013-04-20 00:14:00,
2013-04-19 20:19:00,37.6,27.6,28.71,SW,220,7.9,9.9,66,0.00,,,0.57,proprietary,2013-04-20 00:19:00,
2013-04-19 20:24:00,37.3,27.9,28.72,SW,218,8.0,11.4,68,0.00,,,0.57,proprietary,2013-04-20 00:24:00,
2013-04-19 20:29:00,37.2,27.9,28.72,SW,235,8.1,9.9,68,0.00,,,0.57,proprietary,2013-04-20 00:29:00,
2013-04-19 20:34:00,37.2,28.0,28.72,SW,232,7.5,11.5,68,0.00,,,0.57,proprietary,2013-04-20 00:34:00,
2013-04-19 20:39:00,37.2,27.8,28.72,SW,229,5.0,8.5,68,0.00,,,0.57,proprietary,2013-04-20 00:39:00,
2013-04-19 20:44:00,37.2,27.6,28.72,SW,216,6.2,8.0,67,0.00,,,0.57,proprietary,2013-04-20 00:44:00,
2013-04-19 20:49:00,37.2,27.6,28.73,SW,223,9.6,15.2,67,0.00,,,0.57,proprietary,2013-04-20 00:49:00,
2013-04-19 20:54:00,37.2,27.5,28.73,SW,226,3.6,4.9,67,0.00,,,0.57,proprietary,2013-04-20 00:54:00,
2013-04-19 20:59:00,37.2,27.5,28.73,SSW,213,8.9,11.6,67,0.00,,,0.57,proprietary,2013-04-20 00:59:00,
2013-04-19 21:04:00,37.1,27.4,28.72,SW,221,8.8,12.0,67,0.00,,,0.57,proprietary,2013-04-20 01:04:00,
2013-04-19 21:09:00,37.1,27.4,28.73,SW,217,8.4,11.4,67,0.00,,,0.57,proprietary,2013-04-20 01:09:00,
2013-04-19 21:15:00,37.0,27.6,28.73,WSW,244,7.8,10.7,68,0.00,,,0.57,proprietary,2013-04-20 01:15:00,
2013-04-19 21:20:00,36.9,27.3,28.73,SW,228,8.4,10.9,67,0.00,,,0.57,proprietary,2013-04-20 01:20:00,
2013-04-19 21:25:00,37.1,27.3,28.74,SW,228,5.3,6.9,67,0.00,,,0.57,proprietary,2013-04-20 01:25:00,
2013-04-19 21:30:00,37.0,27.7,28.74,SW,234,5.8,9.4,68,0.00,,,0.57,proprietary,2013-04-20 01:30:00,
2013-04-19 21:35:00,37.0,27.9,28.74,SW,223,7.6,9.9,69,0.00,,,0.57,proprietary,2013-04-20 01:35:00,
2013-04-19 21:40:00,36.8,28.4,28.74,SW,220,10.9,17.0,71,0.00,,,0.57,proprietary,2013-04-20 01:40:00,
2013-04-19 21:46:00,36.5,28.8,28.75,SW,218,8.5,13.7,73,0.00,,,0.57,proprietary,2013-04-20 01:46:00,
2013-04-19 21:51:00,36.4,29.0,28.75,SW,223,7.4,9.9,74,0.00,,,0.57,proprietary,2013-04-20 01:51:00,
2013-04-19 21:56:00,36.3,29.2,28.75,WSW,245,5.5,10.8,75,0.00,,,0.57,proprietary,2013-04-20 01:56:00,
2013-04-19 22:01:00,36.3,28.9,28.75,SW,234,7.1,10.8,74,0.00,,,0.57,proprietary,2013-04-20 02:01:00,
2013-04-19 22:06:00,36.3,28.9,28.75,WSW,243,6.6,10.6,74,0.00,,,0.57,proprietary,2013-04-20 02:06:00,
2013-04-19 22:11:00,36.3,29.0,28.75,SSW,209,11.1,15.5,74,0.00,,,0.57,proprietary,2013-04-20 02:11:00,
2013-04-19 22:16:00,36.3,28.8,28.75,SW,218,5.3,8.6,73,0.00,,,0.57,proprietary,2013-04-20 02:16:00,
2013-04-19 22:21:00,36.3,28.9,28.75,SSW,213,9.5,13.0,74,0.00,,,0.57,proprietary,2013-04-20 02:21:00,
2013-04-19 22:26:00,36.3,28.7,28.75,SW,223,10.9,18.9,73,0.00,,,0.57,proprietary,2013-04-20 02:26:00,
2013-04-19 22:32:00,36.3,28.8,28.75,SW,224,5.9,7.8,73,0.00,,,0.57,proprietary,2013-04-20 02:32:00,
2013-04-19 22:37:00,36.3,29.1,28.75,SSW,207,11.2,15.2,74,0.00,,,0.57,proprietary,2013-04-20 02:37:00,
2013-04-19 22:42:00,36.2,29.1,28.75,SSW,202,9.9,13.5,75,0.00,,,0.57,proprietary,2013-04-20 02:42:00,
2013-04-19 22:47:00,36.2,29.1,28.75,SW,228,6.2,7.8,75,0.00,,,0.57,proprietary,2013-04-20 02:47:00,
2013-04-19 22:53:00,36.1,29.1,28.75,SW,220,5.1,9.1,75,0.00,,,0.57,proprietary,2013-04-20 02:53:00,
2013-04-19 22:58:00,36.1,29.1,28.75,SSW,208,8.3,11.8,75,0.00,,,0.57,proprietary,2013-04-20 02:58:00,
2013-04-19 23:04:00,36.1,29.0,28.75,WSW,244,6.4,8.2,75,0.00,,,0.57,proprietary,2013-04-20 03:04:00,
2013-04-19 23:09:00,36.0,29.0,28.75,SW,230,5.7,8.8,75,0.00,,,0.57,proprietary,2013-04-20 03:09:00,
2013-04-19 23:14:00,35.7,29.1,28.75,SW,224,4.7,6.2,76,0.00,,,0.57,proprietary,2013-04-20 03:14:00,
2013-04-19 23:19:00,35.6,29.2,28.76,WSW,241,5.6,8.6,77,0.00,,,0.57,proprietary,2013-04-20 03:19:00,
2013-04-19 23:24:00,35.4,29.5,28.76,WSW,247,5.9,7.0,78,0.00,,,0.57,proprietary,2013-04-20 03:24:00,
2013-04-19 23:29:00,35.3,30.0,28.76,West,263,3.4,4.6,80,0.00,,,0.57,proprietary,2013-04-20 03:29:00,
2013-04-19 23:34:00,35.2,30.2,28.76,WSW,254,7.5,9.5,81,0.00,,,0.57,proprietary,2013-04-20 03:34:00,
2013-04-19 23:39:00,35.1,30.0,28.76,WSW,244,9.8,13.6,81,0.00,,,0.57,proprietary,2013-04-20 03:39:00,
2013-04-19 23:44:00,34.6,30.6,28.76,SW,235,8.1,10.2,85,0.00,,,0.57,proprietary,2013-04-20 03:44:00,
2013-04-19 23:49:00,33.6,30.7,28.76,WSW,242,4.7,7.4,88,0.00,,,0.57,proprietary,2013-04-20 03:49:00,
2013-04-19 23:54:00,33.6,31.0,28.76,West,260,4.2,6.9,90,0.00,,,0.57,proprietary,2013-04-20 03:54:00,
2013-04-19 23:59:00,33.7,31.0,28.76,WSW,242,6.1,8.6,90,0.00,,,0.57,proprietary,2013-04-20 03:59:00,